FW0152 Weather Reports


time (UTC)temp
C
wind
direction
speed
KPH
gust
KPH
rain 1hr
cm
rain 24hr
cm
rain mn
cm
humidity
%
barometer
mb
20260507021028 12 166 0.0 6.4 0.00 0.28 0.28 91 1007.9
20260507020528 12 175 1.6 11.3 0.00 0.28 0.28 91 1007.9
20260507020048 12 239 1.6 11.3 0.00 0.28 0.28 91 1007.5
20260507015527 12 194 1.6 6.4 0.00 0.28 0.28 91 1007.4
20260507015026 12 0 0.0 6.4 0.00 0.28 0.28 91 1007.5
20260507014537 12 0 0.0 6.4 0.00 0.28 0.28 91 1007.5
20260507014028 12 188 0.0 6.4 0.00 0.28 0.28 91 1007.7
20260507013526 12 236 0.0 6.4 0.00 0.28 0.28 91 1007.8
20260507013038 12 0 0.0 6.4 0.00 0.28 0.28 91 1008.0
20260507012529 12 206 0.0 4.8 0.00 0.28 0.28 91 1008.1
20260507012029 12 0 0.0 6.4 0.00 0.28 0.28 91 1007.9
20260507011545 12 188 1.6 6.4 0.00 0.28 0.28 91 1008.0
20260507011027 12 148 0.0 11.3 0.00 0.28 0.28 91 1008.1
20260507010527 12 227 1.6 11.3 0.00 0.28 0.28 91 1008.2
20260507010038 12 0 0.0 6.4 0.00 0.28 0.28 91 1008.2
20260507005527 12 311 1.6 11.3 0.00 0.28 0.28 91 1008.3
20260507005027 12 0 0.0 11.3 0.00 0.28 0.28 91 1008.2
20260507004541 12 142 0.0 12.9 0.00 0.28 0.28 91 1008.2
20260507004026 12 192 1.6 14.5 0.00 0.28 0.28 91 1008.3
20260507003528 12 246 3.2 14.5 0.00 0.28 0.28 91 1008.2
20260507003037 12 277 0.0 8.0 0.00 0.28 0.28 91 1008.2
20260507002528 12 0 0.0 8.0 0.00 0.28 0.28 91 1007.9
20260507002028 12 0 3.2 9.7 0.00 0.28 0.28 91 1007.8
20260507001604 12 187 0.0 11.3 0.00 0.28 0.28 91 1007.9
20260507001031 12 194 4.8 11.3 0.00 0.28 0.28 91 1007.8
20260507000527 12 0 1.6 8.0 0.00 0.28 0.28 91 1007.8
20260507000042 12 169 0.0 11.3 0.00 0.28 0.28 91 1007.7
20260506235530 12 53 1.6 11.3 0.00 0.28 0.28 91 1007.9
20260506235028 12 286 3.2 11.3 0.00 0.28 0.28 91 1008.0
20260506234541 12 162 1.6 9.7 0.00 0.28 0.28 91 1008.0
20260506234028 12 216 3.2 12.9 0.03 0.28 0.28 91 1008.0
20260506233522 12 148 4.8 12.9 0.03 0.28 0.28 91 1007.9
20260506233040 12 191 3.2 9.7 0.03 0.28 0.28 91 1007.8
20260506232522 12 210 1.6 8.0 0.03 0.28 0.28 91 1007.8
20260506232022 12 204 1.6 11.3 0.03 0.28 0.28 91 1007.7
20260506231540 12 213 3.2 11.3 0.05 0.28 0.28 91 1007.8
20260506231027 12 191 1.6 17.7 0.05 0.28 0.28 91 1007.8
20260506230526 12 180 1.6 17.7 0.08 0.28 0.28 91 1007.9
20260506230052 12 232 3.2 14.5 0.08 0.28 0.28 91 1007.8
20260506225525 12 156 4.8 14.5 0.08 0.28 0.28 91 1007.8
20260506225025 12 188 4.8 14.5 0.10 0.28 0.28 91 1007.8
20260506224537 12 236 1.6 14.5 0.10 0.28 0.28 90 1007.8
20260506224025 12 350 4.8 14.5 0.10 0.25 0.25 90 1007.7
20260506223525 12 177 3.2 12.9 0.10 0.25 0.25 90 1007.7
20260506223035 12 32 1.6 12.9 0.13 0.25 0.25 90 1007.6
20260506222529 12 219 1.6 12.9 0.13 0.25 0.25 90 1007.7
20260506222025 12 221 1.6 11.3 0.13 0.25 0.25 90 1007.7
20260506221551 12 254 1.6 11.3 0.10 0.23 0.23 90 1007.7
20260506221026 12 182 3.2 11.3 0.10 0.23 0.23 90 1007.7
20260506220524 12 228 1.6 9.7 0.10 0.20 0.20 90 1007.8
20260506220040 12 259 1.6 9.7 0.10 0.20 0.20 90 1007.9
20260506215522 12 239 1.6 9.7 0.10 0.20 0.20 90 1008.0
20260506215022 12 242 3.2 12.9 0.08 0.18 0.18 90 1008.0
20260506214538 12 204 1.6 12.9 0.08 0.18 0.18 89 1008.1
20260506214027 12 38 1.6 9.7 0.05 0.15 0.15 89 1008.1
20260506213523 13 187 1.6 19.3 0.05 0.15 0.15 89 1008.2
20260506213037 13 196 3.2 19.3 0.03 0.13 0.13 89 1008.3
20260506212526 13 248 1.6 8.0 0.05 0.13 0.13 89 1008.3
20260506212026 13 245 3.2 11.3 0.05 0.13 0.13 89 1008.4
20260506211537 13 280 1.6 11.3 0.05 0.13 0.13 89 1008.4
20260506211027 13 158 3.2 12.9 0.08 0.13 0.13 89 1008.4
20260506210529 13 360 3.2 12.9 0.05 0.10 0.10 89 1008.7
20260506210049 13 360 3.2 9.7 0.05 0.10 0.10 89 1008.5
20260506205523 13 360 3.2 14.5 0.05 0.10 0.10 89 1008.6
20260506205025 13 360 3.2 14.5 0.05 0.10 0.10 88 1008.6
20260506204545 13 0 1.6 14.5 0.05 0.10 0.10 88 1008.7
20260506204022 13 360 3.2 14.5 0.05 0.10 0.10 88 1008.6
20260506203526 13 360 3.2 14.5 0.05 0.10 0.10 88 1008.8
20260506203042 13 360 3.2 14.5 0.05 0.10 0.10 88 1009.0
20260506202532 13 360 3.2 14.5 0.03 0.08 0.08 88 1008.8
20260506202028 13 360 1.6 12.9 0.05 0.08 0.08 88 1009.0
20260506201538 13 170 3.2 12.9 0.08 0.08 0.08 87 1009.0
20260506201027 13 166 4.8 16.1 0.05 0.05 0.05 87 1009.0
20260506200527 13 355 4.8 17.7 0.05 0.05 0.05 87 1009.1
20260506200039 13 234 4.8 17.7 0.05 0.05 0.05 87 1009.2
20260506195527 13 221 4.8 16.1 0.05 0.05 0.05 87 1009.2
20260506195027 14 202 4.8 16.1 0.05 0.05 0.05 86 1009.3
20260506194542 14 273 3.2 16.1 0.05 0.05 0.05 87 1009.4
20260506194029 14 287 1.6 8.0 0.05 0.05 0.05 87 1009.3
20260506193529 14 164 3.2 8.0 0.05 0.05 0.05 86 1009.1
20260506193044 14 203 1.6 14.5 0.05 0.05 0.05 85 1009.3
20260506192528 14 360 1.6 14.5 0.03 0.03 0.03 84 1009.3
20260506192028 15 250 3.2 20.9 0.03 0.03 0.03 83 1009.4
20260506191539 15 204 4.8 20.9 0.00 0.00 0.00 82 1009.4
20260506191028 15 182 6.4 16.1 0.00 0.00 0.00 81 1009.3
20260506190529 15 360 3.2 14.5 0.00 0.00 0.00 79 1009.4
20260506190038 16 360 4.8 17.7 0.00 0.00 0.00 77 1009.5
20260506185527 16 223 4.8 25.7 0.00 0.00 0.00 75 1009.6
20260506185028 16 336 4.8 25.7 0.00 0.00 0.00 74 1009.5
20260506184547 16 211 4.8 17.7 0.00 0.00 0.00 74 1009.6
20260506184028 16 237 4.8 17.7 0.00 0.00 0.00 74 1009.6
20260506183527 16 224 3.2 16.1 0.00 0.00 0.00 74 1009.6
20260506183044 16 244 3.2 14.5 0.00 0.00 0.00 74 1009.7
20260506182527 17 163 4.8 14.5 0.00 0.00 0.00 73 1009.7
20260506182029 17 236 6.4 22.5 0.00 0.00 0.00 73 1009.8
20260506181542 17 195 3.2 22.5 0.00 0.00 0.00 73 1010.0
20260506181030 17 285 4.8 22.5 0.00 0.00 0.00 77 1010.2
20260506180531 17 243 3.2 19.3 0.00 0.00 0.00 71 1009.9
20260506180037 17 122 6.4 19.3 0.00 0.00 0.00 71 1010.0
20260506175527 17 153 1.6 17.7 0.00 0.00 0.00 71 1010.0
20260506175027 17 29 4.8 17.7 0.00 0.00 0.00 70 1010.0
20260506174538 18 186 4.8 11.3 0.00 0.00 0.00 69 1010.3
20260506174027 18 144 3.2 9.7 0.00 0.00 0.00 70 1010.2
20260506173527 18 33 4.8 14.5 0.00 0.00 0.00 69 1010.2
20260506173046 18 198 4.8 14.5 0.00 0.00 0.00 69 1010.4
20260506172527 18 173 4.8 12.9 0.00 0.00 0.00 69 1010.7
20260506172027 18 277 4.8 12.9 0.00 0.00 0.00 68 1010.8
20260506171541 19 179 4.8 19.3 0.00 0.00 0.00 68 1010.8
20260506171030 19 298 1.6 19.3 0.00 0.00 0.00 68 1010.6
20260506170527 18 276 6.4 19.3 0.00 0.00 0.00 68 1010.6
20260506170045 18 153 4.8 16.1 0.00 0.00 0.00 69 1010.5
20260506165529 18 155 6.4 17.7 0.00 0.00 0.00 68 1010.6
20260506165030 19 146 6.4 17.7 0.00 0.00 0.00 69 1010.5
20260506164551 19 250 6.4 17.7 0.00 0.00 0.00 69 1010.8
20260506164031 18 209 6.4 17.7 0.00 0.00 0.00 70 1011.0
20260506163527 18 213 4.8 17.7 0.00 0.00 0.00 70 1011.1
20260506163041 18 199 3.2 16.1 0.00 0.00 0.00 71 1011.2
20260506162529 18 34 3.2 17.7 0.00 0.00 0.00 71 1011.1
20260506162027 18 173 4.8 17.7 0.00 0.00 0.00 69 1011.2
20260506161540 18 155 6.4 17.7 0.00 0.00 0.00 69 1011.3
20260506161026 18 74 1.6 14.5 0.00 0.00 0.00 69 1011.2
20260506160528 18 153 4.8 14.5 0.00 0.00 0.00 68 1011.3
20260506160045 18 161 3.2 16.1 0.00 0.00 0.00 67 1011.5
20260506155527 19 213 4.8 29.0 0.00 0.00 0.00 66 1011.5
20260506155027 19 0 6.4 29.0 0.00 0.00 0.00 66 1011.4
20260506154543 20 215 6.4 16.1 0.00 0.00 0.00 64 1011.5
20260506154027 20 242 4.8 16.1 0.00 0.00 0.00 64 1011.5
20260506153527 20 222 6.4 24.1 0.00 0.00 0.00 65 1011.4
20260506153037 20 240 4.8 25.7 0.00 0.00 0.00 65 1011.6
20260506152530 20 333 4.8 25.7 0.00 0.00 0.00 66 1011.3
20260506152025 20 131 1.6 24.1 0.00 0.00 0.00 67 1011.5
20260506151544 19 66 4.8 17.7 0.00 0.00 0.00 67 1011.5
20260506151027 19 190 3.2 17.7 0.00 0.00 0.00 67 1011.6
20260506150527 19 180 4.8 17.7 0.00 0.00 0.00 66 1011.7
20260506150049 20 193 4.8 12.9 0.00 0.00 0.00 66 1011.7
20260506145526 20 212 3.2 25.7 0.00 0.00 0.00 67 1011.6
20260506145026 19 227 3.2 25.7 0.00 0.00 0.00 67 1011.8
20260506144538 19 11 4.8 19.3 0.00 0.00 0.00 72 1011.7
20260506144028 19 189 4.8 19.3 0.00 0.00 0.00 67 1011.4
20260506143531 19 0 1.6 16.1 0.00 0.00 0.00 67 1011.5
20260506143040 19 243 3.2 22.5 0.00 0.00 0.00 66 1011.6
20260506142526 19 302 6.4 22.5 0.00 0.00 0.00 68 1011.5
20260506142025 18 183 6.4 16.1 0.00 0.00 0.00 69 1011.8
20260506141542 18 200 3.2 12.9 0.00 0.00 0.00 69 1011.7
20260506141028 18 180 3.2 12.9 0.00 0.00 0.00 69 1011.6
20260506140525 18 238 3.2 11.3 0.00 0.00 0.00 69 1011.5
20260506140037 18 213 3.2 17.7 0.00 0.00 0.00 69 1011.4
20260506135526 18 290 4.8 17.7 0.00 0.00 0.00 69 1011.2
20260506135028 18 135 4.8 27.4 0.00 0.00 0.00 68 1011.3
20260506134541 18 95 6.4 27.4 0.00 0.00 0.00 69 1011.6
20260506134025 18 103 3.2 19.3 0.00 0.00 0.00 68 1011.5
20260506133526 18 161 4.8 19.3 0.00 0.00 0.00 69 1011.5
20260506133050 18 230 4.8 14.5 0.00 0.00 0.00 70 1011.7
20260506132530 18 79 3.2 16.1 0.00 0.00 0.00 70 1011.6
20260506132025 18 221 4.8 16.1 0.00 0.00 0.00 72 1011.8
20260506131538 17 286 6.4 16.1 0.00 0.00 0.00 71 1011.7
20260506131024 17 219 4.8 12.9 0.00 0.00 0.00 71 1011.7
20260506130528 17 200 3.2 12.9 0.00 0.00 0.00 79 1011.8
20260506130037 17 179 3.2 12.9 0.00 0.00 0.00 73 1011.7
20260506125526 17 256 4.8 12.9 0.00 0.00 0.00 74 1011.7
20260506125023 17 202 1.6 14.5 0.00 0.00 0.00 74 1011.8
20260506124537 17 205 3.2 14.5 0.00 0.00 0.00 75 1011.8
20260506124025 16 144 4.8 14.5 0.00 0.00 0.00 75 1011.7
20260506123526 16 204 3.2 12.9 0.00 0.00 0.00 75 1011.6
20260506123037 16 191 3.2 12.9 0.00 0.00 0.00 75 1011.7
20260506122526 16 151 4.8 12.9 0.00 0.00 0.00 76 1011.6
20260506122025 16 32 3.2 11.3 0.00 0.00 0.00 77 1011.7
20260506121545 16 234 4.8 11.3 0.00 0.00 0.00 77 1011.8
20260506121026 16 240 3.2 11.3 0.00 0.00 0.00 78 1011.9
20260506120527 15 54 3.2 19.3 0.00 0.00 0.00 79 1011.9
20260506120056 15 84 1.6 19.3 0.00 0.00 0.00 80 1012.0
20260506115527 15 234 8.0 19.3 0.00 0.00 0.00 80 1012.0
20260506115026 15 0 4.8 12.9 0.00 0.00 0.00 80 1012.0
20260506114537 15 28 3.2 12.9 0.00 0.00 0.00 81 1012.0
20260506114026 15 190 3.2 14.5 0.00 0.00 0.00 82 1012.1
20260506113526 15 91 3.2 14.5 0.00 0.00 0.00 82 1012.2
20260506113037 14 246 3.2 14.5 0.00 0.00 0.00 82 1012.3
20260506112528 14 237 3.2 12.9 0.00 0.00 0.00 83 1012.2
20260506112026 14 146 1.6 12.9 0.00 0.00 0.00 83 1012.3
20260506111544 14 28 1.6 9.7 0.00 0.00 0.00 84 1012.3
20260506111030 13 222 1.6 9.7 0.00 0.00 0.00 84 1012.3
20260506110528 13 360 3.2 8.0 0.00 0.00 0.00 84 1012.3
20260506110048 13 155 3.2 17.7 0.00 0.00 0.00 83 1012.2
20260506105529 13 205 1.6 17.7 0.00 0.00 0.00 83 1012.2
20260506105026 13 272 3.2 17.7 0.00 0.00 0.00 83 1012.0
20260506104553 13 0 1.6 9.7 0.00 0.00 0.00 84 1012.0
20260506104025 13 360 1.6 9.7 0.00 0.00 0.00 84 1012.0
20260506103524 13 360 3.2 9.7 0.00 0.00 0.00 84 1011.9
20260506103044 13 360 1.6 12.9 0.00 0.00 0.00 84 1012.0
20260506102529 13 0 3.2 12.9 0.00 0.00 0.00 84 1012.0
20260506102026 13 360 1.6 9.7 0.00 0.00 0.00 84 1012.0
20260506101539 13 360 4.8 9.7 0.00 0.00 0.00 85 1011.8
20260506101026 13 360 3.2 14.5 0.00 0.00 0.00 85 1012.0
20260506100526 13 360 3.2 14.5 0.00 0.00 0.00 84 1011.9
20260506100037 13 0 3.2 16.1 0.00 0.00 0.00 85 1011.9
20260506095527 13 360 1.6 16.1 0.00 0.00 0.00 84 1011.7
20260506095029 13 177 3.2 16.1 0.00 0.00 0.00 85 1011.8
20260506094536 13 167 3.2 14.5 0.00 0.00 0.00 84 1011.7
20260506094025 13 236 1.6 14.5 0.00 0.00 0.00 85 1011.7
20260506093525 13 360 4.8 14.5 0.00 0.00 0.00 84 1011.6
20260506093040 13 219 4.8 12.9 0.00 0.00 0.00 85 1011.8
20260506092525 13 112 3.2 14.5 0.00 0.00 0.00 85 1011.8
20260506092026 13 360 3.2 14.5 0.00 0.00 0.00 85 1011.9
20260506091538 13 360 0.0 19.3 0.00 0.00 0.00 85 1012.0
20260506091025 13 360 3.2 19.3 0.00 0.00 0.00 85 1011.9
20260506090525 13 360 3.2 14.5 0.00 0.00 0.00 84 1011.9
20260506090040 13 183 4.8 14.5 0.00 0.00 0.00 84 1011.9
20260506085526 13 209 3.2 14.5 0.00 0.00 0.00 84 1012.0
20260506085025 13 83 4.8 14.5 0.00 0.00 0.00 84 1012.0
20260506084610 13 196 3.2 14.5 0.00 0.00 0.00 84 1012.0
20260506084025 13 279 1.6 17.7 0.00 0.00 0.00 84 1012.1
20260506083526 13 169 3.2 17.7 0.00 0.00 0.00 84 1012.1
20260506083039 13 177 4.8 16.1 0.00 0.00 0.00 84 1012.1
20260506082526 13 250 3.2 11.3 0.00 0.00 0.00 84 1012.1
20260506082026 13 29 4.8 11.3 0.00 0.00 0.00 83 1012.1
20260506081552 13 213 3.2 11.3 0.00 0.00 0.00 83 1012.3
20260506081029 13 238 1.6 12.9 0.00 0.00 0.00 83 1012.2
20260506080528 13 186 3.2 12.9 0.00 0.00 0.00 83 1012.2
20260506073526 14 193 4.8 16.1 0.00 0.00 0.00 82 1012.2
20260506073038 14 172 4.8 25.7 0.00 0.00 0.00 82 1012.2
20260506072525 14 95 3.2 25.7 0.00 0.00 0.00 82 1012.1
20260506072027 14 233 4.8 16.1 0.00 0.00 0.00 82 1012.1
20260506071544 14 300 3.2 14.5 0.00 0.00 0.00 82 1012.0
20260506071025 14 252 3.2 12.9 0.00 0.00 0.00 82 1012.2
20260506070526 14 209 3.2 9.7 0.00 0.00 0.00 82 1012.1
20260506062026 14 32 4.8 25.7 0.00 0.00 0.00 81 1012.0
20260506061537 14 293 1.6 12.9 0.00 0.00 0.00 81 1011.8
20260506061025 14 165 4.8 12.9 0.00 0.00 0.00 81 1012.0
20260506060528 14 185 3.2 14.5 0.00 0.00 0.00 81 1012.1
20260506051027 14 175 4.8 22.5 0.00 0.00 0.00 80 1012.3
20260506050526 14 334 4.8 14.5 0.00 0.00 0.00 80 1012.4
20260506045026 14 196 3.2 16.1 0.00 0.00 0.00 80 1012.5
20260506044538 14 208 4.8 16.1 0.00 0.00 0.00 80 1012.4
20260506044025 14 200 4.8 16.1 0.00 0.00 0.00 79 1012.6
20260506043528 14 212 3.2 16.1 0.00 0.00 0.00 79 1012.7
20260506043040 14 0 1.6 16.1 0.00 0.00 0.00 79 1012.7
20260506042525 14 184 1.6 16.1 0.00 0.00 0.00 79 1012.6
20260506042024 14 202 3.2 16.1 0.00 0.00 0.00 79 1012.6
20260506041538 14 245 4.8 16.1 0.00 0.00 0.00 79 1012.5
20260506041024 14 201 6.4 16.1 0.00 0.00 0.00 79 1012.5
20260506040528 14 174 3.2 19.3 0.00 0.00 0.00 78 1012.4
20260506040040 14 28 6.4 19.3 0.00 0.00 0.00 78 1012.3
20260506035526 14 195 1.6 20.9 0.00 0.00 0.00 78 1012.3
20260506035027 14 175 3.2 20.9 0.00 0.00 0.00 78 1012.4
20260506034537 14 144 3.2 12.9 0.00 0.00 0.00 77 1012.4
20260506034027 14 294 3.2 16.1 0.00 0.00 0.00 77 1012.3
20260506033525 14 178 1.6 17.7 0.00 0.00 0.00 77 1012.3
20260506033043 14 234 4.8 17.7 0.00 0.00 0.00 76 1012.2
20260506032527 14 223 3.2 12.9 0.00 0.00 0.00 76 1012.2
20260506032027 14 184 4.8 16.1 0.00 0.00 0.00 76 1012.1
20260506031542 14 215 4.8 16.1 0.00 0.00 0.00 76 1012.2
20260506031025 14 234 1.6 11.3 0.00 0.00 0.00 75 1012.2
20260506030525 14 212 1.6 14.5 0.00 0.00 0.00 75 1012.2
20260506030040 14 205 3.2 14.5 0.00 0.00 0.00 75 1012.3
20260506025524 14 34 1.6 12.9 0.00 0.00 0.00 74 1012.2
20260506025028 14 219 1.6 12.9 0.00 0.00 0.00 75 1012.1
20260506024538 14 271 3.2 12.9 0.00 0.00 0.00 74 1012.3
20260506024025 14 180 1.6 11.3 0.00 0.00 0.00 74 1012.3
20260506023526 14 296 1.6 11.3 0.00 0.00 0.00 74 1012.3
20260506023053 14 211 3.2 9.7 0.00 0.00 0.00 74 1012.3
20260506022525 14 0 1.6 11.3 0.00 0.00 0.00 74 1012.3
20260506022027 14 244 4.8 11.3 0.00 0.00 0.00 74 1012.3
20260506021604 14 285 1.6 8.0 0.00 0.00 0.00 73 1012.4